"Time","Value","Approval","myLocation"
"2022-03-29 22:00",5.366,"Approved","OW503"
"2022-03-29 23:00",5.366,"Approved","OW503"
"2022-03-30 00:00",5.364,"Approved","OW503"
"2022-03-30 01:00",5.367,"Approved","OW503"
"2022-03-30 02:00",5.37,"Approved","OW503"
"2022-03-30 03:00",5.371,"Approved","OW503"
"2022-03-30 04:00",5.376,"Approved","OW503"
"2022-03-30 05:00",5.371,"Approved","OW503"
"2022-03-30 06:00",5.369,"Approved","OW503"
"2022-03-30 07:00",5.371,"Approved","OW503"
"2022-03-30 08:00",5.372,"Approved","OW503"
"2022-03-30 09:00",5.373,"Approved","OW503"
"2022-03-30 10:00",5.374,"Approved","OW503"
"2022-03-30 11:00",5.375,"Approved","OW503"
"2022-03-30 12:00",5.38,"Approved","OW503"
"2022-03-30 13:00",5.377,"Approved","OW503"
"2022-03-30 14:00",5.379,"Approved","OW503"
"2022-03-30 15:00",5.38,"Approved","OW503"
"2022-03-30 16:00",5.375,"Approved","OW503"
"2022-03-30 17:00",5.38,"Approved","OW503"
"2022-03-30 18:00",5.38,"Approved","OW503"
"2022-03-30 19:00",5.377,"Approved","OW503"
"2022-03-30 20:00",5.383,"Approved","OW503"
"2022-03-30 21:00",5.38,"Approved","OW503"
"2022-03-30 22:00",5.384,"Approved","OW503"
"2022-03-30 23:00",5.381,"Approved","OW503"
"2022-03-31 00:00",5.379,"Approved","OW503"
"2022-03-31 01:00",5.382,"Approved","OW503"
"2022-03-31 02:00",5.384,"Approved","OW503"
"2022-03-31 03:00",5.384,"Approved","OW503"
"2022-03-31 04:00",5.388,"Approved","OW503"
"2022-03-31 05:00",5.384,"Approved","OW503"
"2022-03-31 06:00",5.387,"Approved","OW503"
"2022-03-31 07:00",5.386,"Approved","OW503"
"2022-03-31 08:00",5.388,"Approved","OW503"
"2022-03-31 09:00",5.394,"Approved","OW503"
"2022-03-31 10:00",5.392,"Approved","OW503"
"2022-03-31 11:00",5.391,"Approved","OW503"
"2022-03-31 12:00",5.391,"Approved","OW503"
"2022-03-31 13:00",5.391,"Approved","OW503"
"2022-03-31 14:00",5.395,"Approved","OW503"
"2022-03-31 15:00",5.398,"Approved","OW503"
"2022-03-31 16:00",5.394,"Approved","OW503"
"2022-03-31 17:00",5.395,"Approved","OW503"
"2022-03-31 18:00",5.396,"Approved","OW503"
"2022-03-31 19:00",5.397,"Approved","OW503"
"2022-03-31 20:00",5.396,"Approved","OW503"
"2022-03-31 21:00",5.399,"Approved","OW503"
"2022-03-31 22:00",5.398,"Approved","OW503"
"2022-03-31 23:00",5.396,"Approved","OW503"
"2022-04-01 00:00",5.398,"Approved","OW503"
"2022-04-01 01:00",5.398,"Approved","OW503"
"2022-04-01 02:00",5.393,"Approved","OW503"
"2022-04-01 03:00",5.398,"Approved","OW503"
"2022-04-01 04:00",5.402,"Approved","OW503"
"2022-04-01 05:00",5.399,"Approved","OW503"
"2022-04-01 06:00",5.399,"Approved","OW503"
"2022-04-01 07:00",5.401,"Approved","OW503"
"2022-04-01 08:00",5.4,"Approved","OW503"
"2022-04-01 09:00",5.402,"Approved","OW503"
"2022-04-01 10:00",5.404,"Approved","OW503"
"2022-04-01 11:00",5.403,"Approved","OW503"
"2022-04-01 12:00",5.406,"Approved","OW503"
"2022-04-01 13:00",5.404,"Approved","OW503"
"2022-04-01 14:00",5.407,"Approved","OW503"
"2022-04-01 15:00",5.408,"Approved","OW503"
"2022-04-01 16:00",5.404,"Approved","OW503"
"2022-04-01 17:00",5.409,"Approved","OW503"
"2022-04-01 18:00",5.408,"Approved","OW503"
"2022-04-01 19:00",5.407,"Approved","OW503"
"2022-04-01 20:00",5.411,"Approved","OW503"
"2022-04-01 21:00",5.413,"Approved","OW503"
"2022-04-01 22:00",5.412,"Approved","OW503"
"2022-04-01 23:00",5.412,"Approved","OW503"
"2022-04-02 00:00",5.413,"Approved","OW503"
"2022-04-02 01:00",5.414,"Approved","OW503"
"2022-04-02 02:00",5.411,"Approved","OW503"
"2022-04-02 03:00",5.413,"Approved","OW503"
"2022-04-02 04:00",5.411,"Approved","OW503"
"2022-04-02 05:00",5.414,"Approved","OW503"
"2022-04-02 06:00",5.411,"Approved","OW503"
"2022-04-02 07:00",5.415,"Approved","OW503"
"2022-04-02 08:00",5.417,"Approved","OW503"
"2022-04-02 09:00",5.415,"Approved","OW503"
"2022-04-02 10:00",5.418,"Approved","OW503"
"2022-04-02 11:00",5.422,"Approved","OW503"
"2022-04-02 12:00",5.422,"Approved","OW503"
"2022-04-02 13:00",5.423,"Approved","OW503"
"2022-04-02 14:00",5.423,"Approved","OW503"
"2022-04-02 15:00",5.424,"Approved","OW503"
"2022-04-02 16:00",5.426,"Approved","OW503"
"2022-04-02 17:00",5.426,"Approved","OW503"
"2022-04-02 18:00",5.431,"Approved","OW503"
"2022-04-02 19:00",5.427,"Approved","OW503"
"2022-04-02 20:00",5.432,"Approved","OW503"
"2022-04-02 21:00",5.432,"Approved","OW503"
"2022-04-02 22:00",5.426,"Approved","OW503"
"2022-04-02 23:00",5.426,"Approved","OW503"
"2022-04-03 00:00",5.431,"Approved","OW503"
"2022-04-03 01:00",5.428,"Approved","OW503"
"2022-04-03 02:00",5.427,"Approved","OW503"
"2022-04-03 03:00",5.432,"Approved","OW503"
"2022-04-03 04:00",5.428,"Approved","OW503"
"2022-04-03 05:00",5.432,"Approved","OW503"
"2022-04-03 06:00",5.431,"Approved","OW503"
"2022-04-03 07:00",5.434,"Approved","OW503"
"2022-04-03 08:00",5.432,"Approved","OW503"
"2022-04-03 09:00",5.43,"Approved","OW503"
"2022-04-03 10:00",5.432,"Approved","OW503"
"2022-04-03 11:00",5.431,"Approved","OW503"
"2022-04-03 12:00",5.43,"Approved","OW503"
"2022-04-03 13:00",5.427,"Approved","OW503"
"2022-04-03 14:00",5.431,"Approved","OW503"
"2022-04-03 15:00",5.433,"Approved","OW503"
"2022-04-03 16:00",5.43,"Approved","OW503"
"2022-04-03 17:00",5.431,"Approved","OW503"
"2022-04-03 18:00",5.436,"Approved","OW503"
"2022-04-03 19:00",5.431,"Approved","OW503"
"2022-04-03 20:00",5.433,"Approved","OW503"
"2022-04-03 21:00",5.434,"Approved","OW503"
"2022-04-03 22:00",5.431,"Approved","OW503"
"2022-04-03 23:00",5.438,"Approved","OW503"
"2022-04-04 00:00",5.433,"Approved","OW503"
"2022-04-04 01:00",5.432,"Approved","OW503"
"2022-04-04 02:00",5.433,"Approved","OW503"
"2022-04-04 03:00",5.431,"Approved","OW503"
"2022-04-04 04:00",5.433,"Approved","OW503"
"2022-04-04 05:00",5.432,"Approved","OW503"
"2022-04-04 06:00",5.43,"Approved","OW503"
"2022-04-04 07:00",5.427,"Approved","OW503"
"2022-04-04 08:00",5.422,"Approved","OW503"
"2022-04-04 09:00",5.424,"Approved","OW503"
"2022-04-04 10:00",5.418,"Approved","OW503"
"2022-04-04 11:00",5.421,"Approved","OW503"
"2022-04-04 12:00",5.421,"Approved","OW503"
"2022-04-04 13:00",5.42,"Approved","OW503"
"2022-04-04 14:00",5.415,"Approved","OW503"
"2022-04-04 15:00",5.414,"Approved","OW503"
"2022-04-04 16:00",5.414,"Approved","OW503"
"2022-04-04 17:00",5.414,"Approved","OW503"
"2022-04-04 18:00",5.414,"Approved","OW503"
"2022-04-04 19:00",5.417,"Approved","OW503"
"2022-04-04 20:00",5.414,"Approved","OW503"
"2022-04-04 21:00",5.413,"Approved","OW503"
"2022-04-04 22:00",5.412,"Approved","OW503"
"2022-04-04 23:00",5.413,"Approved","OW503"
"2022-04-05 00:00",5.411,"Approved","OW503"
"2022-04-05 01:00",5.411,"Approved","OW503"
"2022-04-05 02:00",5.412,"Approved","OW503"
"2022-04-05 03:00",5.411,"Approved","OW503"
"2022-04-05 04:00",5.415,"Approved","OW503"
"2022-04-05 05:00",5.409,"Approved","OW503"
"2022-04-05 06:00",5.413,"Approved","OW503"
"2022-04-05 07:00",5.418,"Approved","OW503"
"2022-04-05 08:00",5.421,"Approved","OW503"
"2022-04-05 09:00",5.415,"Approved","OW503"
"2022-04-05 10:00",5.419,"Approved","OW503"
"2022-04-05 11:00",5.421,"Approved","OW503"
"2022-04-05 12:00",5.42,"Approved","OW503"
"2022-04-05 13:00",5.421,"Approved","OW503"
"2022-04-05 14:00",5.423,"Approved","OW503"
"2022-04-05 15:00",5.421,"Approved","OW503"
"2022-04-05 16:00",5.421,"Approved","OW503"
"2022-04-05 17:00",5.423,"Approved","OW503"
"2022-04-05 18:00",5.428,"Approved","OW503"
"2022-04-05 19:00",5.426,"Approved","OW503"
"2022-04-05 20:00",5.428,"Approved","OW503"
"2022-04-05 21:00",5.428,"Approved","OW503"
"2022-04-05 22:00",5.425,"Approved","OW503"
"2022-04-05 23:00",5.43,"Approved","OW503"
"2022-04-06 00:00",5.43,"Approved","OW503"
"2022-04-06 01:00",5.431,"Approved","OW503"
"2022-04-06 02:00",5.425,"Approved","OW503"
"2022-04-06 03:00",5.425,"Approved","OW503"
"2022-04-06 04:00",5.428,"Approved","OW503"
"2022-04-06 05:00",5.428,"Approved","OW503"
"2022-04-06 06:00",5.433,"Approved","OW503"
"2022-04-06 07:00",5.43,"Approved","OW503"
"2022-04-06 08:00",5.426,"Approved","OW503"
"2022-04-06 09:00",5.431,"Approved","OW503"
"2022-04-06 10:00",5.434,"Approved","OW503"
"2022-04-06 11:00",5.434,"Approved","OW503"
"2022-04-06 12:00",5.436,"Approved","OW503"
"2022-04-06 13:00",5.433,"Approved","OW503"
"2022-04-06 14:00",5.434,"Approved","OW503"
"2022-04-06 15:00",5.435,"Approved","OW503"
"2022-04-06 16:00",5.435,"Approved","OW503"
"2022-04-06 17:00",5.436,"Approved","OW503"
"2022-04-06 18:00",5.435,"Approved","OW503"
"2022-04-06 19:00",5.439,"Approved","OW503"
"2022-04-06 20:00",5.436,"Approved","OW503"
"2022-04-06 21:00",5.439,"Approved","OW503"
"2022-04-06 22:00",5.438,"Approved","OW503"
"2022-04-06 23:00",5.437,"Approved","OW503"
"2022-04-07 00:00",5.437,"Approved","OW503"
"2022-04-07 01:00",5.435,"Approved","OW503"
"2022-04-07 02:00",5.439,"Approved","OW503"
"2022-04-07 03:00",5.442,"Approved","OW503"
"2022-04-07 04:00",5.44,"Approved","OW503"
"2022-04-07 05:00",5.443,"Approved","OW503"
"2022-04-07 06:00",5.441,"Approved","OW503"
"2022-04-07 07:00",5.446,"Approved","OW503"
"2022-04-07 08:00",5.449,"Approved","OW503"
"2022-04-07 09:00",5.445,"Approved","OW503"
"2022-04-07 10:00",5.443,"Approved","OW503"
"2022-04-07 11:00",5.445,"Approved","OW503"
"2022-04-07 12:00",5.443,"Approved","OW503"
"2022-04-07 13:00",5.448,"Approved","OW503"
"2022-04-07 14:00",5.449,"Approved","OW503"
"2022-04-07 15:00",5.448,"Approved","OW503"
"2022-04-07 16:00",5.446,"Approved","OW503"
"2022-04-07 17:00",5.448,"Approved","OW503"
"2022-04-07 18:00",5.444,"Approved","OW503"
"2022-04-07 19:00",5.45,"Approved","OW503"
"2022-04-07 20:00",5.452,"Approved","OW503"
"2022-04-07 21:00",5.45,"Approved","OW503"
"2022-04-07 22:00",5.452,"Approved","OW503"
"2022-04-07 23:00",5.453,"Approved","OW503"
"2022-04-08 00:00",5.452,"Approved","OW503"
"2022-04-08 01:00",5.453,"Approved","OW503"
"2022-04-08 02:00",5.447,"Approved","OW503"
"2022-04-08 03:00",5.453,"Approved","OW503"
"2022-04-08 04:00",5.454,"Approved","OW503"
"2022-04-08 05:00",5.452,"Approved","OW503"
"2022-04-08 06:00",5.455,"Approved","OW503"
"2022-04-08 07:00",5.456,"Approved","OW503"
"2022-04-08 08:00",5.456,"Approved","OW503"
"2022-04-08 09:00",5.457,"Approved","OW503"
"2022-04-08 10:00",5.46,"Approved","OW503"
"2022-04-08 11:00",5.462,"Approved","OW503"
"2022-04-08 12:00",5.459,"Approved","OW503"
"2022-04-08 13:00",5.457,"Approved","OW503"
"2022-04-08 14:00",5.462,"Approved","OW503"
"2022-04-08 15:00",5.457,"Approved","OW503"
"2022-04-08 16:00",5.454,"Approved","OW503"
"2022-04-08 17:00",5.458,"Approved","OW503"
"2022-04-08 18:00",5.457,"Approved","OW503"
"2022-04-08 19:00",5.46,"Approved","OW503"
"2022-04-08 20:00",5.458,"Approved","OW503"
"2022-04-08 21:00",5.458,"Approved","OW503"
"2022-04-08 22:00",5.457,"Approved","OW503"
"2022-04-08 23:00",5.459,"Approved","OW503"
"2022-04-09 00:00",5.458,"Approved","OW503"
"2022-04-09 01:00",5.456,"Approved","OW503"
"2022-04-09 02:00",5.456,"Approved","OW503"
"2022-04-09 03:00",5.456,"Approved","OW503"
"2022-04-09 04:00",5.463,"Approved","OW503"
"2022-04-09 05:00",5.464,"Approved","OW503"
"2022-04-09 06:00",5.463,"Approved","OW503"
"2022-04-09 07:00",5.46,"Approved","OW503"
"2022-04-09 08:00",5.462,"Approved","OW503"
"2022-04-09 09:00",5.462,"Approved","OW503"
"2022-04-09 10:00",5.461,"Approved","OW503"
"2022-04-09 11:00",5.459,"Approved","OW503"
"2022-04-09 12:00",5.464,"Approved","OW503"
"2022-04-09 13:00",5.464,"Approved","OW503"
"2022-04-09 14:00",5.465,"Approved","OW503"
"2022-04-09 15:00",5.466,"Approved","OW503"
"2022-04-09 16:00",5.466,"Approved","OW503"
"2022-04-09 17:00",5.461,"Approved","OW503"
"2022-04-09 18:00",5.466,"Approved","OW503"
"2022-04-09 19:00",5.466,"Approved","OW503"
"2022-04-09 20:00",5.467,"Approved","OW503"
"2022-04-09 21:00",5.467,"Approved","OW503"
"2022-04-09 22:00",5.469,"Approved","OW503"
"2022-04-09 23:00",5.467,"Approved","OW503"
"2022-04-10 00:00",5.469,"Approved","OW503"
"2022-04-10 01:00",5.467,"Approved","OW503"
"2022-04-10 02:00",5.468,"Approved","OW503"
"2022-04-10 03:00",5.467,"Approved","OW503"
"2022-04-10 04:00",5.468,"Approved","OW503"
"2022-04-10 05:00",5.472,"Approved","OW503"
"2022-04-10 06:00",5.468,"Approved","OW503"
"2022-04-10 07:00",5.468,"Approved","OW503"
"2022-04-10 08:00",5.47,"Approved","OW503"
"2022-04-10 09:00",5.473,"Approved","OW503"
"2022-04-10 10:00",5.471,"Approved","OW503"
"2022-04-10 11:00",5.473,"Approved","OW503"
"2022-04-10 12:00",5.469,"Approved","OW503"
"2022-04-10 13:00",5.474,"Approved","OW503"
"2022-04-10 14:00",5.475,"Approved","OW503"
"2022-04-10 15:00",5.477,"Approved","OW503"
"2022-04-10 16:00",5.474,"Approved","OW503"
"2022-04-10 17:00",5.482,"Approved","OW503"
"2022-04-10 18:00",5.474,"Approved","OW503"
"2022-04-10 19:00",5.48,"Approved","OW503"
"2022-04-10 20:00",5.476,"Approved","OW503"
"2022-04-10 21:00",5.481,"Approved","OW503"
"2022-04-10 22:00",5.478,"Approved","OW503"
"2022-04-10 23:00",5.477,"Approved","OW503"
"2022-04-11 00:00",5.478,"Approved","OW503"
"2022-04-11 01:00",5.476,"Approved","OW503"
"2022-04-11 02:00",5.477,"Approved","OW503"
"2022-04-11 03:00",5.485,"Approved","OW503"
"2022-04-11 04:00",5.482,"Approved","OW503"
"2022-04-11 05:00",5.48,"Approved","OW503"
"2022-04-11 06:00",5.484,"Approved","OW503"
"2022-04-11 07:00",5.483,"Approved","OW503"
"2022-04-11 08:00",5.48,"Approved","OW503"
"2022-04-11 09:00",5.483,"Approved","OW503"
"2022-04-11 10:00",5.478,"Approved","OW503"
"2022-04-11 11:00",5.48,"Approved","OW503"
"2022-04-11 12:00",5.482,"Approved","OW503"
"2022-04-11 13:00",5.479,"Approved","OW503"
"2022-04-11 14:00",5.483,"Approved","OW503"
"2022-04-11 15:00",5.484,"Approved","OW503"
"2022-04-11 16:00",5.482,"Approved","OW503"
"2022-04-11 17:00",5.488,"Approved","OW503"
"2022-04-11 18:00",5.487,"Approved","OW503"
"2022-04-11 19:00",5.496,"Approved","OW503"
"2022-04-11 20:00",5.488,"Approved","OW503"
"2022-04-11 21:00",5.491,"Approved","OW503"
"2022-04-11 22:00",5.493,"Approved","OW503"
"2022-04-11 23:00",5.493,"Approved","OW503"
"2022-04-12 00:00",5.496,"Approved","OW503"
"2022-04-12 01:00",5.495,"Approved","OW503"
"2022-04-12 02:00",5.501,"Approved","OW503"
"2022-04-12 03:00",5.504,"Approved","OW503"
"2022-04-12 04:00",5.5,"Approved","OW503"
"2022-04-12 05:00",5.506,"Approved","OW503"
"2022-04-12 06:00",5.507,"Approved","OW503"
"2022-04-12 07:00",5.506,"Approved","OW503"
"2022-04-12 08:00",5.504,"Approved","OW503"
"2022-04-12 09:00",5.508,"Approved","OW503"
"2022-04-12 10:00",5.505,"Approved","OW503"
"2022-04-12 11:00",5.507,"Approved","OW503"
"2022-04-12 12:00",5.51,"Approved","OW503"
"2022-04-12 13:00",5.51,"Approved","OW503"
"2022-04-12 14:00",5.512,"Approved","OW503"
"2022-04-12 15:00",5.512,"Approved","OW503"
"2022-04-12 16:00",5.511,"Approved","OW503"
"2022-04-12 17:00",5.512,"Approved","OW503"
"2022-04-12 18:00",5.515,"Approved","OW503"
"2022-04-12 19:00",5.515,"Approved","OW503"
"2022-04-12 20:00",5.515,"Approved","OW503"
"2022-04-12 21:00",5.517,"Approved","OW503"
"2022-04-12 22:00",5.517,"Approved","OW503"
"2022-04-12 23:00",5.515,"Approved","OW503"
"2022-04-13 00:00",5.516,"Approved","OW503"
"2022-04-13 01:00",5.52,"Approved","OW503"
"2022-04-13 02:00",5.518,"Approved","OW503"
"2022-04-13 03:00",5.52,"Approved","OW503"
"2022-04-13 04:00",5.519,"Approved","OW503"
"2022-04-13 05:00",5.519,"Approved","OW503"
"2022-04-13 06:00",5.521,"Approved","OW503"
"2022-04-13 07:00",5.519,"Approved","OW503"
"2022-04-13 08:00",5.517,"Approved","OW503"
"2022-04-13 09:00",5.522,"Approved","OW503"
"2022-04-13 10:00",5.52,"Approved","OW503"
"2022-04-13 11:00",5.524,"Approved","OW503"
"2022-04-13 12:00",5.523,"Approved","OW503"
"2022-04-13 13:00",5.524,"Approved","OW503"
"2022-04-13 14:00",5.521,"Approved","OW503"
"2022-04-13 15:00",5.526,"Approved","OW503"
"2022-04-13 16:00",5.526,"Approved","OW503"
"2022-04-13 17:00",5.527,"Approved","OW503"
"2022-04-13 18:00",5.531,"Approved","OW503"
"2022-04-13 19:00",5.529,"Approved","OW503"
"2022-04-13 20:00",5.528,"Approved","OW503"
"2022-04-13 21:00",5.528,"Approved","OW503"
"2022-04-13 22:00",5.521,"Approved","OW503"
"2022-04-13 23:00",5.525,"Approved","OW503"
"2022-04-14 00:00",5.528,"Approved","OW503"
"2022-04-14 01:00",5.53,"Approved","OW503"
"2022-04-14 02:00",5.529,"Approved","OW503"
"2022-04-14 03:00",5.534,"Approved","OW503"
"2022-04-14 04:00",5.537,"Approved","OW503"
"2022-04-14 05:00",5.538,"Approved","OW503"
"2022-04-14 06:00",5.54,"Approved","OW503"
"2022-04-14 07:00",5.541,"Approved","OW503"
"2022-04-14 08:00",5.539,"Approved","OW503"
"2022-04-14 09:00",5.541,"Approved","OW503"
"2022-04-14 10:00",5.54,"Approved","OW503"
"2022-04-14 11:00",5.541,"Approved","OW503"
"2022-04-14 12:00",5.545,"Approved","OW503"
"2022-04-14 13:00",5.545,"Approved","OW503"
"2022-04-14 14:00",5.547,"Approved","OW503"
"2022-04-14 15:00",5.549,"Approved","OW503"
"2022-04-14 16:00",5.55,"Approved","OW503"
"2022-04-14 17:00",5.552,"Approved","OW503"
"2022-04-14 18:00",5.554,"Approved","OW503"
"2022-04-14 19:00",5.553,"Approved","OW503"
"2022-04-14 20:00",5.554,"Approved","OW503"
"2022-04-14 21:00",5.557,"Approved","OW503"
"2022-04-14 22:00",5.554,"Approved","OW503"
"2022-04-14 23:00",5.557,"Approved","OW503"
"2022-04-15 00:00",5.555,"Approved","OW503"
"2022-04-15 01:00",5.553,"Approved","OW503"
"2022-04-15 02:00",5.558,"Approved","OW503"
"2022-04-15 03:00",5.559,"Approved","OW503"
"2022-04-15 04:00",5.564,"Approved","OW503"
"2022-04-15 05:00",5.564,"Approved","OW503"
"2022-04-15 06:00",5.565,"Approved","OW503"
"2022-04-15 07:00",5.566,"Approved","OW503"
"2022-04-15 08:00",5.571,"Approved","OW503"
"2022-04-15 09:00",5.568,"Approved","OW503"
"2022-04-15 10:00",5.57,"Approved","OW503"
"2022-04-15 11:00",5.565,"Approved","OW503"
"2022-04-15 12:00",5.564,"Approved","OW503"
"2022-04-15 13:00",5.569,"Approved","OW503"
"2022-04-15 14:00",5.569,"Approved","OW503"
"2022-04-15 15:00",5.571,"Approved","OW503"
"2022-04-15 16:00",5.572,"Approved","OW503"
"2022-04-15 17:00",5.577,"Approved","OW503"
"2022-04-15 18:00",5.574,"Approved","OW503"
"2022-04-15 19:00",5.575,"Approved","OW503"
"2022-04-15 20:00",5.576,"Approved","OW503"
"2022-04-15 21:00",5.578,"Approved","OW503"
"2022-04-15 22:00",5.58,"Approved","OW503"
"2022-04-15 23:00",5.577,"Approved","OW503"
"2022-04-16 00:00",5.575,"Approved","OW503"
"2022-04-16 01:00",5.575,"Approved","OW503"
"2022-04-16 02:00",5.573,"Approved","OW503"
"2022-04-16 03:00",5.576,"Approved","OW503"
"2022-04-16 04:00",5.568,"Approved","OW503"
"2022-04-16 05:00",5.573,"Approved","OW503"
"2022-04-16 06:00",5.572,"Approved","OW503"
"2022-04-16 07:00",5.577,"Approved","OW503"
"2022-04-16 08:00",5.576,"Approved","OW503"
"2022-04-16 09:00",5.578,"Approved","OW503"
"2022-04-16 10:00",5.581,"Approved","OW503"
"2022-04-16 11:00",5.581,"Approved","OW503"
"2022-04-16 12:00",5.579,"Approved","OW503"
"2022-04-16 13:00",5.574,"Approved","OW503"
"2022-04-16 14:00",5.575,"Approved","OW503"
"2022-04-16 15:00",5.574,"Approved","OW503"
"2022-04-16 16:00",5.574,"Approved","OW503"
"2022-04-16 17:00",5.575,"Approved","OW503"
"2022-04-16 18:00",5.574,"Approved","OW503"
"2022-04-16 19:00",5.577,"Approved","OW503"
"2022-04-16 20:00",5.577,"Approved","OW503"
"2022-04-16 21:00",5.571,"Approved","OW503"
"2022-04-16 22:00",5.578,"Approved","OW503"
"2022-04-16 23:00",5.577,"Approved","OW503"
"2022-04-17 00:00",5.582,"Approved","OW503"
"2022-04-17 01:00",5.579,"Approved","OW503"
"2022-04-17 02:00",5.578,"Approved","OW503"
"2022-04-17 03:00",5.58,"Approved","OW503"
"2022-04-17 04:00",5.587,"Approved","OW503"
"2022-04-17 05:00",5.585,"Approved","OW503"
"2022-04-17 06:00",5.586,"Approved","OW503"
"2022-04-17 07:00",5.586,"Approved","OW503"
"2022-04-17 08:00",5.587,"Approved","OW503"
"2022-04-17 09:00",5.585,"Approved","OW503"
"2022-04-17 10:00",5.589,"Approved","OW503"
"2022-04-17 11:00",5.592,"Approved","OW503"
"2022-04-17 12:00",5.588,"Approved","OW503"
"2022-04-17 13:00",5.59,"Approved","OW503"
"2022-04-17 14:00",5.595,"Approved","OW503"
"2022-04-17 15:00",5.596,"Approved","OW503"
"2022-04-17 16:00",5.595,"Approved","OW503"
"2022-04-17 17:00",5.591,"Approved","OW503"
"2022-04-17 18:00",5.596,"Approved","OW503"
"2022-04-17 19:00",5.592,"Approved","OW503"
"2022-04-17 20:00",5.596,"Approved","OW503"
"2022-04-17 21:00",5.595,"Approved","OW503"
"2022-04-17 22:00",5.592,"Approved","OW503"
"2022-04-17 23:00",5.59,"Approved","OW503"
"2022-04-18 00:00",5.592,"Approved","OW503"
"2022-04-18 01:00",5.591,"Approved","OW503"
"2022-04-18 02:00",5.588,"Approved","OW503"
"2022-04-18 03:00",5.591,"Approved","OW503"
"2022-04-18 04:00",5.592,"Approved","OW503"
"2022-04-18 05:00",5.592,"Approved","OW503"
"2022-04-18 06:00",5.59,"Approved","OW503"
"2022-04-18 07:00",5.592,"Approved","OW503"
"2022-04-18 08:00",5.594,"Approved","OW503"
"2022-04-18 09:00",5.594,"Approved","OW503"
"2022-04-18 10:00",5.593,"Approved","OW503"
"2022-04-18 11:00",5.591,"Approved","OW503"
"2022-04-18 12:00",5.591,"Approved","OW503"
"2022-04-18 13:00",5.594,"Approved","OW503"
"2022-04-18 14:00",5.594,"Approved","OW503"
"2022-04-18 15:00",5.595,"Approved","OW503"
"2022-04-18 16:00",5.6,"Approved","OW503"
"2022-04-18 17:00",5.598,"Approved","OW503"
"2022-04-18 18:00",5.598,"Approved","OW503"
"2022-04-18 19:00",5.597,"Approved","OW503"
"2022-04-18 20:00",5.598,"Approved","OW503"
"2022-04-18 21:00",5.599,"Approved","OW503"
"2022-04-18 22:00",5.594,"Approved","OW503"
"2022-04-18 23:00",5.593,"Approved","OW503"
"2022-04-19 00:00",5.594,"Approved","OW503"
"2022-04-19 01:00",5.592,"Approved","OW503"
"2022-04-19 02:00",5.591,"Approved","OW503"
"2022-04-19 03:00",5.594,"Approved","OW503"
"2022-04-19 04:00",5.593,"Approved","OW503"
"2022-04-19 05:00",5.596,"Approved","OW503"
"2022-04-19 06:00",5.597,"Approved","OW503"
"2022-04-19 07:00",5.596,"Approved","OW503"
"2022-04-19 08:00",5.592,"Approved","OW503"
"2022-04-19 09:00",5.593,"Approved","OW503"
"2022-04-19 10:00",5.589,"Approved","OW503"
"2022-04-19 11:00",5.592,"Approved","OW503"
"2022-04-19 12:00",5.592,"Approved","OW503"
"2022-04-19 13:00",5.595,"Approved","OW503"
"2022-04-19 14:00",5.592,"Approved","OW503"
"2022-04-19 15:00",5.594,"Approved","OW503"
"2022-04-19 16:00",5.592,"Approved","OW503"
"2022-04-19 17:00",5.591,"Approved","OW503"
"2022-04-19 18:00",5.598,"Approved","OW503"
"2022-04-19 19:00",5.595,"Approved","OW503"
"2022-04-19 20:00",5.599,"Approved","OW503"
"2022-04-19 21:00",5.596,"Approved","OW503"
"2022-04-19 22:00",5.603,"Approved","OW503"
"2022-04-19 23:00",5.599,"Approved","OW503"
"2022-04-20 00:00",5.592,"Approved","OW503"
"2022-04-20 01:00",5.599,"Approved","OW503"
"2022-04-20 02:00",5.602,"Approved","OW503"
"2022-04-20 03:00",5.601,"Approved","OW503"
"2022-04-20 04:00",5.599,"Approved","OW503"
"2022-04-20 05:00",5.605,"Approved","OW503"
"2022-04-20 06:00",5.603,"Approved","OW503"
"2022-04-20 07:00",5.602,"Approved","OW503"
"2022-04-20 08:00",5.607,"Approved","OW503"
"2022-04-20 09:00",5.6,"Approved","OW503"
"2022-04-20 10:00",5.6,"Approved","OW503"
"2022-04-20 11:00",5.603,"Approved","OW503"
"2022-04-20 12:00",5.603,"Approved","OW503"
"2022-04-20 13:00",5.608,"Approved","OW503"
"2022-04-20 14:00",5.605,"Approved","OW503"
"2022-04-20 15:00",5.606,"Approved","OW503"
"2022-04-20 16:00",5.613,"Approved","OW503"
"2022-04-20 17:00",5.608,"Approved","OW503"
"2022-04-20 18:00",5.605,"Approved","OW503"
"2022-04-20 19:00",5.605,"Approved","OW503"
"2022-04-20 20:00",5.604,"Approved","OW503"
"2022-04-20 21:00",5.601,"Approved","OW503"
"2022-04-20 22:00",5.6,"Approved","OW503"
"2022-04-20 23:00",5.604,"Approved","OW503"
"2022-04-21 00:00",5.603,"Approved","OW503"
"2022-04-21 01:00",5.604,"Approved","OW503"
"2022-04-21 02:00",5.607,"Approved","OW503"